Location: *
(51.1248°S, 108.4023°W)
Time: 12:12:24
(UTC+00:00)

USA 281 - Pass Details

Date: 23 October 2021
Orbit: 1078 x 1081 km, 106.0° (Epoch: 25 November)

Event Time Altitude Azimuth Distance (km) Brightness Sun altitude
Exits shadow 02:22:16 - 39° (NE) 3,897 5.6 -3.8°
Rises 02:22:19 0° 39° (NE) 3,879 5.6 -3.8°
Reaches altitude 10° 02:24:50 10° 41° (NE) 2,930 5.0 -4.2°
Maximum altitude 02:31:23 71° 122° (ESE) 1,155 3.3 -5.1°
Drops below altitude 10° 02:38:00 10° 204° (SSW) 2,959 6.4 -6.1°
Sets 02:40:32 0° 206° (SSW) 3,921 7.1 -6.4°
